Year,Month,Day,Hour,Minute,Value (Times are PST for temperature in C)
2010,09,02,00,00,14.50
2010,09,02,00,01,14.50
2010,09,02,00,02,14.40
2010,09,02,00,03,14.40
2010,09,02,00,04,14.40
2010,09,02,00,05,14.40
2010,09,02,00,06,14.40
2010,09,02,00,07,14.40
2010,09,02,00,08,14.40
2010,09,02,00,09,14.40
2010,09,02,00,10,14.50
2010,09,02,00,11,14.40
2010,09,02,00,12,14.40
2010,09,02,00,13,14.40
2010,09,02,00,14,14.40
2010,09,02,00,15,14.40
2010,09,02,00,16,14.40
2010,09,02,00,17,14.40
2010,09,02,00,18,14.40
2010,09,02,00,19,14.40
2010,09,02,00,20,14.40
2010,09,02,00,21,14.40
2010,09,02,00,22,14.40
2010,09,02,00,23,14.50
2010,09,02,00,24,14.50
2010,09,02,00,25,14.50
2010,09,02,00,26,14.50
2010,09,02,00,27,14.60
2010,09,02,00,28,14.60
2010,09,02,00,29,14.60
2010,09,02,00,30,14.60
2010,09,02,00,31,14.60
2010,09,02,00,32,14.60
2010,09,02,00,33,14.60
2010,09,02,00,34,14.60
2010,09,02,00,35,14.60
2010,09,02,00,36,14.60
2010,09,02,00,37,14.70
2010,09,02,00,38,14.70
2010,09,02,00,39,14.80
2010,09,02,00,40,14.80
2010,09,02,00,41,14.80
2010,09,02,00,42,14.80
2010,09,02,00,43,14.80
2010,09,02,00,44,14.80
2010,09,02,00,45,14.80
2010,09,02,00,46,14.80
2010,09,02,00,47,14.80
2010,09,02,00,48,14.80
2010,09,02,00,49,14.80
2010,09,02,00,50,14.80
2010,09,02,00,51,14.80
2010,09,02,00,52,14.80
2010,09,02,00,53,14.80
2010,09,02,00,54,14.80
2010,09,02,00,55,14.80
2010,09,02,00,56,14.80
2010,09,02,00,57,14.80
2010,09,02,00,58,14.80
2010,09,02,00,59,14.80
2010,09,02,01,00,14.70
2010,09,02,01,01,14.70
2010,09,02,01,02,14.70
2010,09,02,01,03,14.70
2010,09,02,01,04,14.70
2010,09,02,01,05,14.70
2010,09,02,01,06,14.60
2010,09,02,01,07,14.60
2010,09,02,01,08,14.60
2010,09,02,01,09,14.60
2010,09,02,01,10,14.60
2010,09,02,01,11,14.50
2010,09,02,01,12,14.50
2010,09,02,01,13,14.40
2010,09,02,01,14,14.40
2010,09,02,01,15,14.40
2010,09,02,01,16,14.40
2010,09,02,01,17,14.40
2010,09,02,01,18,14.40
2010,09,02,01,19,14.40
2010,09,02,01,20,14.30
2010,09,02,01,21,14.30
2010,09,02,01,22,14.30
2010,09,02,01,23,14.30
2010,09,02,01,24,14.30
2010,09,02,01,25,14.30
2010,09,02,01,26,14.30
2010,09,02,01,27,14.30
2010,09,02,01,28,14.30
2010,09,02,01,29,14.30
2010,09,02,01,30,14.30
2010,09,02,01,31,14.30
2010,09,02,01,32,14.30
2010,09,02,01,33,14.30
2010,09,02,01,34,14.30
2010,09,02,01,35,14.30
2010,09,02,01,36,14.30
2010,09,02,01,37,14.30
2010,09,02,01,38,14.30
2010,09,02,01,39,14.20
2010,09,02,01,40,14.20
2010,09,02,01,41,14.20
2010,09,02,01,42,14.20
2010,09,02,01,43,14.20
2010,09,02,01,44,14.20
2010,09,02,01,45,14.20
2010,09,02,01,46,14.20
2010,09,02,01,47,14.20
2010,09,02,01,48,14.20
2010,09,02,01,49,14.20
2010,09,02,01,50,14.10
2010,09,02,01,51,14.10
2010,09,02,01,52,14.10
2010,09,02,01,53,14.10
2010,09,02,01,54,14.10
2010,09,02,01,55,14.10
2010,09,02,01,56,14.10
2010,09,02,01,57,14.10
2010,09,02,01,58,14.10
2010,09,02,01,59,14.10
2010,09,02,02,00,14.00
2010,09,02,02,01,14.00
2010,09,02,02,02,14.00
2010,09,02,02,03,14.00
2010,09,02,02,04,13.90
2010,09,02,02,05,13.90
2010,09,02,02,06,13.90
2010,09,02,02,07,13.90
2010,09,02,02,08,13.90
2010,09,02,02,09,13.80
2010,09,02,02,10,13.80
2010,09,02,02,11,13.80
2010,09,02,02,12,13.80
2010,09,02,02,13,13.80
2010,09,02,02,14,13.70
2010,09,02,02,15,13.70
2010,09,02,02,16,13.70
2010,09,02,02,17,13.70
2010,09,02,02,18,13.70
2010,09,02,02,19,13.70
2010,09,02,02,20,13.70
2010,09,02,02,21,13.70
2010,09,02,02,22,13.70
2010,09,02,02,23,13.70
2010,09,02,02,24,13.70
2010,09,02,02,25,13.70
2010,09,02,02,26,13.70
2010,09,02,02,27,13.70
2010,09,02,02,28,13.70
2010,09,02,02,29,13.70
2010,09,02,02,30,13.60
2010,09,02,02,31,13.60
2010,09,02,02,32,13.60
2010,09,02,02,33,13.60
2010,09,02,02,34,13.60
2010,09,02,02,35,13.60
2010,09,02,02,36,13.60
2010,09,02,02,37,13.60
2010,09,02,02,38,13.60
2010,09,02,02,39,13.50
2010,09,02,02,40,13.50
2010,09,02,02,41,13.50
2010,09,02,02,42,13.50
2010,09,02,02,43,13.50
2010,09,02,02,44,13.50
2010,09,02,02,45,13.50
2010,09,02,02,46,13.50
2010,09,02,02,47,13.50
2010,09,02,02,48,13.50
2010,09,02,02,49,13.50
2010,09,02,02,50,13.50
2010,09,02,02,51,13.50
2010,09,02,02,52,13.50
2010,09,02,02,53,13.50
2010,09,02,02,54,13.50
2010,09,02,02,55,13.50
2010,09,02,02,56,13.50
2010,09,02,02,57,13.50
2010,09,02,02,58,13.50
2010,09,02,02,59,13.50
2010,09,02,03,00,13.50
2010,09,02,03,01,13.50
2010,09,02,03,02,13.60
2010,09,02,03,03,13.60
2010,09,02,03,04,13.60
2010,09,02,03,05,13.60
2010,09,02,03,06,13.60
2010,09,02,03,07,13.60
2010,09,02,03,08,13.70
2010,09,02,03,09,13.70
2010,09,02,03,10,13.70
2010,09,02,03,11,13.70
2010,09,02,03,12,13.70
2010,09,02,03,13,13.70
2010,09,02,03,14,13.80
2010,09,02,03,15,13.80
2010,09,02,03,16,13.80
2010,09,02,03,17,13.80
2010,09,02,03,18,13.80
2010,09,02,03,19,13.80
2010,09,02,03,20,13.80
2010,09,02,03,21,13.80
2010,09,02,03,22,13.80
2010,09,02,03,23,13.80
2010,09,02,03,24,13.80
2010,09,02,03,25,13.80
2010,09,02,03,26,13.70
2010,09,02,03,27,13.70
2010,09,02,03,28,13.70
2010,09,02,03,29,13.70
2010,09,02,03,30,13.70
2010,09,02,03,31,13.70
2010,09,02,03,32,13.70
2010,09,02,03,33,13.70
2010,09,02,03,34,13.70
2010,09,02,03,35,13.70
2010,09,02,03,36,13.70
2010,09,02,03,37,13.70
2010,09,02,03,38,13.80
2010,09,02,03,39,13.80
2010,09,02,03,40,13.80
2010,09,02,03,41,13.80
2010,09,02,03,42,13.80
2010,09,02,03,43,13.80
2010,09,02,03,44,13.80
2010,09,02,03,45,13.80
2010,09,02,03,46,13.80
2010,09,02,03,47,13.80
2010,09,02,03,48,13.80
2010,09,02,03,49,13.80
2010,09,02,03,50,13.80
2010,09,02,03,51,13.80
2010,09,02,03,52,13.80
2010,09,02,03,53,13.80
2010,09,02,03,54,13.80
2010,09,02,03,55,13.80
2010,09,02,03,56,13.80
2010,09,02,03,57,13.80
2010,09,02,03,58,13.80
2010,09,02,03,59,13.80
2010,09,02,04,00,13.80
2010,09,02,04,01,13.80
2010,09,02,04,02,13.80
2010,09,02,04,03,13.80
2010,09,02,04,04,13.80
2010,09,02,04,05,13.70
2010,09,02,04,06,13.70
2010,09,02,04,07,13.70
2010,09,02,04,08,13.70
2010,09,02,04,09,13.70
2010,09,02,04,10,13.70
2010,09,02,04,11,13.70
2010,09,02,04,12,13.70
2010,09,02,04,13,13.70
2010,09,02,04,14,13.70
2010,09,02,04,15,13.70
2010,09,02,04,16,13.70
2010,09,02,04,17,13.70
2010,09,02,04,18,13.70
2010,09,02,04,19,13.80
2010,09,02,04,20,13.80
2010,09,02,04,21,13.80
2010,09,02,04,22,13.80
2010,09,02,04,23,13.80
2010,09,02,04,24,13.90
2010,09,02,04,25,13.90
2010,09,02,04,26,13.90
2010,09,02,04,27,13.90
2010,09,02,04,28,13.90
2010,09,02,04,29,13.90
2010,09,02,04,30,13.90
2010,09,02,04,31,13.90
2010,09,02,04,32,13.90
2010,09,02,04,33,14.00
2010,09,02,04,34,14.00
2010,09,02,04,35,14.00
2010,09,02,04,36,14.00
2010,09,02,04,37,14.10
2010,09,02,04,38,14.10
2010,09,02,04,39,14.10
2010,09,02,04,40,14.10
2010,09,02,04,41,14.10
2010,09,02,04,42,14.10
2010,09,02,04,43,14.10
2010,09,02,04,44,14.10
2010,09,02,04,45,14.20
2010,09,02,04,46,14.20
2010,09,02,04,47,14.20
2010,09,02,04,48,14.20
2010,09,02,04,49,14.20
2010,09,02,04,50,14.20
2010,09,02,04,51,14.20
2010,09,02,04,52,14.20
2010,09,02,04,53,14.20
2010,09,02,04,54,14.20
2010,09,02,04,55,14.20
2010,09,02,04,56,14.30
2010,09,02,04,57,14.30
2010,09,02,04,58,14.30
2010,09,02,04,59,14.30
2010,09,02,05,00,14.30
2010,09,02,05,01,14.30
2010,09,02,05,02,14.30
2010,09,02,05,03,14.30
2010,09,02,05,04,14.30
2010,09,02,05,05,14.20
2010,09,02,05,06,14.20
2010,09,02,05,07,14.20
2010,09,02,05,08,14.20
2010,09,02,05,09,14.20
2010,09,02,05,10,14.20
2010,09,02,05,11,14.20
2010,09,02,05,12,14.20
2010,09,02,05,13,14.20
2010,09,02,05,14,14.20
2010,09,02,05,15,14.10
2010,09,02,05,16,14.10
2010,09,02,05,17,14.10
2010,09,02,05,18,14.10
2010,09,02,05,19,14.10
2010,09,02,05,20,14.10
2010,09,02,05,21,14.10
2010,09,02,05,22,14.10
2010,09,02,05,23,14.10
2010,09,02,05,24,14.00
2010,09,02,05,25,14.00
2010,09,02,05,26,14.00
2010,09,02,05,27,13.90
2010,09,02,05,28,13.90
2010,09,02,05,29,13.90
2010,09,02,05,30,13.90
2010,09,02,05,31,13.80
2010,09,02,05,32,13.80
2010,09,02,05,33,13.80
2010,09,02,05,34,13.70
2010,09,02,05,35,13.70
2010,09,02,05,36,13.70
2010,09,02,05,37,13.60
2010,09,02,05,38,13.60
2010,09,02,05,39,13.60
2010,09,02,05,40,13.50
2010,09,02,05,41,13.50
2010,09,02,05,42,13.40
2010,09,02,05,43,13.40
2010,09,02,05,44,13.40
2010,09,02,05,45,13.40
2010,09,02,05,46,13.30
2010,09,02,05,47,13.30
2010,09,02,05,48,13.30
2010,09,02,05,49,13.30
2010,09,02,05,50,13.30
2010,09,02,05,51,13.30
2010,09,02,05,52,13.30
2010,09,02,05,53,13.30
2010,09,02,05,54,13.30
2010,09,02,05,55,13.30
2010,09,02,05,56,13.30
2010,09,02,05,57,13.30
2010,09,02,05,58,13.30
2010,09,02,05,59,13.30
2010,09,02,06,00,13.30
2010,09,02,06,01,13.30
2010,09,02,06,02,13.30
2010,09,02,06,03,13.30
2010,09,02,06,04,13.30
2010,09,02,06,05,13.30
2010,09,02,06,06,13.30
2010,09,02,06,07,13.30
2010,09,02,06,08,13.30
2010,09,02,06,09,13.30
2010,09,02,06,10,13.30
2010,09,02,06,11,13.30
2010,09,02,06,12,13.30
2010,09,02,06,13,13.30
2010,09,02,06,14,13.30
2010,09,02,06,15,13.30
2010,09,02,06,16,13.30
2010,09,02,06,17,13.30
2010,09,02,06,18,13.30
2010,09,02,06,19,13.30
2010,09,02,06,20,13.20
2010,09,02,06,21,13.20
2010,09,02,06,22,13.20
2010,09,02,06,23,13.20
2010,09,02,06,24,13.20
2010,09,02,06,25,13.20
2010,09,02,06,26,13.20
2010,09,02,06,27,13.20
2010,09,02,06,28,13.20
2010,09,02,06,29,13.30
2010,09,02,06,30,13.30
2010,09,02,06,31,13.30
2010,09,02,06,32,13.30
2010,09,02,06,33,13.30
2010,09,02,06,34,13.30
2010,09,02,06,35,13.30
2010,09,02,06,36,13.30
2010,09,02,06,37,13.30
2010,09,02,06,38,13.30
2010,09,02,06,39,13.30
2010,09,02,06,40,13.30
2010,09,02,06,41,13.30
2010,09,02,06,42,13.30
2010,09,02,06,43,13.30
2010,09,02,06,44,13.30
2010,09,02,06,45,13.30
2010,09,02,06,46,13.30
2010,09,02,06,47,13.30
2010,09,02,06,48,13.30
2010,09,02,06,49,13.30
2010,09,02,06,50,13.30
2010,09,02,06,51,13.40
2010,09,02,06,52,13.40
2010,09,02,06,53,13.40
2010,09,02,06,54,13.40
2010,09,02,06,55,13.40
2010,09,02,06,56,13.40
2010,09,02,06,57,13.40
2010,09,02,06,58,13.40
2010,09,02,06,59,13.40
2010,09,02,07,00,13.40
2010,09,02,07,01,13.50
2010,09,02,07,02,13.50
2010,09,02,07,03,13.50
2010,09,02,07,04,13.60
2010,09,02,07,05,13.60
2010,09,02,07,06,13.60
2010,09,02,07,07,13.60
2010,09,02,07,08,13.60
2010,09,02,07,09,13.70
2010,09,02,07,10,13.70
2010,09,02,07,11,13.70
2010,09,02,07,12,13.70
2010,09,02,07,13,13.70
2010,09,02,07,14,13.70
2010,09,02,07,15,13.70
2010,09,02,07,16,13.70
2010,09,02,07,17,13.80
2010,09,02,07,18,13.80
2010,09,02,07,19,13.80
2010,09,02,07,20,13.80
2010,09,02,07,21,13.80
2010,09,02,07,22,13.90
2010,09,02,07,23,13.90
2010,09,02,07,24,13.90
2010,09,02,07,25,14.00
2010,09,02,07,26,14.00
2010,09,02,07,27,14.00
2010,09,02,07,28,14.10
2010,09,02,07,29,14.10
2010,09,02,07,30,14.20
2010,09,02,07,31,14.20
2010,09,02,07,32,14.20
2010,09,02,07,33,14.30
2010,09,02,07,34,14.30
2010,09,02,07,35,14.40
2010,09,02,07,36,14.50
2010,09,02,07,37,14.50
2010,09,02,07,38,14.60
2010,09,02,07,39,14.60
2010,09,02,07,40,14.70
2010,09,02,07,41,14.70
2010,09,02,07,42,14.80
2010,09,02,07,43,14.80
2010,09,02,07,44,14.80
2010,09,02,07,45,14.90
2010,09,02,07,46,15.00
2010,09,02,07,47,15.00
2010,09,02,07,48,15.10
2010,09,02,07,49,15.10
2010,09,02,07,50,15.20
2010,09,02,07,51,15.20
2010,09,02,07,52,15.20
2010,09,02,07,53,15.30
2010,09,02,07,54,15.30
2010,09,02,07,55,15.40
2010,09,02,07,56,15.50
2010,09,02,07,57,15.50
2010,09,02,07,58,15.60
2010,09,02,07,59,15.60
2010,09,02,08,00,15.70
2010,09,02,08,01,15.70
2010,09,02,08,02,15.80
2010,09,02,08,03,15.80
2010,09,02,08,04,15.90
2010,09,02,08,05,15.90
2010,09,02,08,06,15.90
2010,09,02,08,07,15.90
2010,09,02,08,08,15.90
2010,09,02,08,09,15.90
2010,09,02,08,10,15.90
2010,09,02,08,11,15.90
2010,09,02,08,12,15.90
2010,09,02,08,13,15.90
2010,09,02,08,14,15.90
2010,09,02,08,15,16.00
2010,09,02,08,16,16.00
2010,09,02,08,17,16.10
2010,09,02,08,18,16.10
2010,09,02,08,19,16.10
2010,09,02,08,20,16.20
2010,09,02,08,21,16.20
2010,09,02,08,22,16.20
2010,09,02,08,23,16.20
2010,09,02,08,24,16.30
2010,09,02,08,25,16.30
2010,09,02,08,26,16.30
2010,09,02,08,27,16.30
2010,09,02,08,28,16.40
2010,09,02,08,29,16.40
2010,09,02,08,30,16.40
2010,09,02,08,31,16.40
2010,09,02,08,32,16.40
2010,09,02,08,33,16.50
2010,09,02,08,34,16.50
2010,09,02,08,35,16.60
2010,09,02,08,36,16.60
2010,09,02,08,37,16.60
2010,09,02,08,38,16.60
2010,09,02,08,39,16.60
2010,09,02,08,40,16.60
2010,09,02,08,41,16.70
2010,09,02,08,42,16.70
2010,09,02,08,43,16.70
2010,09,02,08,44,16.70
2010,09,02,08,45,16.70
2010,09,02,08,46,16.70
2010,09,02,08,47,16.70
2010,09,02,08,48,16.70
2010,09,02,08,49,16.70
2010,09,02,08,50,16.70
2010,09,02,08,51,16.70
2010,09,02,08,52,16.70
2010,09,02,08,53,16.70
2010,09,02,08,54,16.70
2010,09,02,08,55,16.70
2010,09,02,08,56,16.70
2010,09,02,08,57,16.70
2010,09,02,08,58,16.70
2010,09,02,08,59,16.80
2010,09,02,09,00,16.80
2010,09,02,09,01,16.80
2010,09,02,09,02,16.80
2010,09,02,09,03,16.80
2010,09,02,09,04,16.80
2010,09,02,09,05,16.80
2010,09,02,09,06,16.80
2010,09,02,09,07,16.80
2010,09,02,09,08,16.90
2010,09,02,09,09,16.90
2010,09,02,09,10,16.90
2010,09,02,09,11,16.90
2010,09,02,09,12,16.90
2010,09,02,09,13,16.90
2010,09,02,09,14,16.90
2010,09,02,09,15,16.90
2010,09,02,09,16,16.90
2010,09,02,09,17,16.90
2010,09,02,09,18,16.90
2010,09,02,09,19,16.90
2010,09,02,09,20,17.00
2010,09,02,09,21,17.00
2010,09,02,09,22,17.10
2010,09,02,09,23,17.10
2010,09,02,09,24,17.20
2010,09,02,09,25,17.20
2010,09,02,09,26,17.30
2010,09,02,09,27,17.30
2010,09,02,09,28,17.40
2010,09,02,09,29,17.40
2010,09,02,09,30,17.40
2010,09,02,09,31,17.50
2010,09,02,09,32,17.50
2010,09,02,09,33,17.60
2010,09,02,09,34,17.60
2010,09,02,09,35,17.50
2010,09,02,09,36,17.50
2010,09,02,09,37,17.50
2010,09,02,09,38,17.40
2010,09,02,09,39,17.40
2010,09,02,09,40,17.40
2010,09,02,09,41,17.50
2010,09,02,09,42,17.60
2010,09,02,09,43,17.60
2010,09,02,09,44,17.70
2010,09,02,09,45,17.70
2010,09,02,09,46,17.80
2010,09,02,09,47,17.80
2010,09,02,09,48,17.90
2010,09,02,09,49,18.00
2010,09,02,09,50,18.10
2010,09,02,09,51,18.10
2010,09,02,09,52,18.20
2010,09,02,09,53,18.20
2010,09,02,09,54,18.30
2010,09,02,09,55,18.30
2010,09,02,09,56,18.30
2010,09,02,09,57,18.30
2010,09,02,09,58,18.30
2010,09,02,09,59,18.30
2010,09,02,10,00,18.40
2010,09,02,10,01,18.40
2010,09,02,10,02,18.40
2010,09,02,10,03,18.50
2010,09,02,10,04,18.60
2010,09,02,10,05,18.60
2010,09,02,10,06,18.70
2010,09,02,10,07,18.70
2010,09,02,10,08,18.70
2010,09,02,10,09,18.70
2010,09,02,10,10,18.70
2010,09,02,10,11,18.70
2010,09,02,10,12,18.70
2010,09,02,10,13,18.70
2010,09,02,10,14,18.60
2010,09,02,10,15,18.50
2010,09,02,10,16,18.40
2010,09,02,10,17,18.30
2010,09,02,10,18,18.20
2010,09,02,10,19,18.20
2010,09,02,10,20,18.10
2010,09,02,10,21,18.10
2010,09,02,10,22,18.00
2010,09,02,10,23,18.00
2010,09,02,10,24,18.00
2010,09,02,10,25,18.00
2010,09,02,10,26,18.00
2010,09,02,10,27,18.00
2010,09,02,10,28,18.00
2010,09,02,10,29,18.00
2010,09,02,10,30,18.00
2010,09,02,10,31,17.90
2010,09,02,10,32,17.80
2010,09,02,10,33,17.70
2010,09,02,10,34,17.60
2010,09,02,10,35,17.50
2010,09,02,10,36,17.50
2010,09,02,10,37,17.50
2010,09,02,10,38,17.60
2010,09,02,10,39,17.60
2010,09,02,10,40,17.70
2010,09,02,10,41,17.80
2010,09,02,10,42,17.90
2010,09,02,10,43,18.00
2010,09,02,10,44,18.10
2010,09,02,10,45,18.10
2010,09,02,10,46,18.10
2010,09,02,10,47,18.10
2010,09,02,10,48,18.10
2010,09,02,10,49,18.10
2010,09,02,10,50,18.10
2010,09,02,10,51,18.10
2010,09,02,10,52,18.20
2010,09,02,10,53,18.20
2010,09,02,10,54,18.20
2010,09,02,10,55,18.20
2010,09,02,10,56,18.30
2010,09,02,10,57,18.30
2010,09,02,10,58,18.30
2010,09,02,10,59,18.40
2010,09,02,11,00,18.40
2010,09,02,11,01,18.50
2010,09,02,11,02,18.50
2010,09,02,11,03,18.50
2010,09,02,11,04,18.40
2010,09,02,11,05,18.40
2010,09,02,11,06,18.30
2010,09,02,11,07,18.30
2010,09,02,11,08,18.20
2010,09,02,11,09,18.10
2010,09,02,11,10,18.00
2010,09,02,11,11,17.90
2010,09,02,11,12,17.70
2010,09,02,11,13,17.60
2010,09,02,11,14,17.50
2010,09,02,11,15,17.40
2010,09,02,11,16,17.30
2010,09,02,11,17,17.20
2010,09,02,11,18,17.20
2010,09,02,11,19,17.20
2010,09,02,11,20,17.20
2010,09,02,11,21,17.20
2010,09,02,11,22,17.30
2010,09,02,11,23,17.30
2010,09,02,11,24,17.30
2010,09,02,11,25,17.30
2010,09,02,11,26,17.30
2010,09,02,11,27,17.30
2010,09,02,11,28,17.30
2010,09,02,11,29,17.20
2010,09,02,11,30,17.10
2010,09,02,11,31,17.00
2010,09,02,11,32,16.90
2010,09,02,11,33,16.90
2010,09,02,11,34,16.80
2010,09,02,11,35,16.80
2010,09,02,11,36,16.80
2010,09,02,11,37,16.80
2010,09,02,11,38,16.80
2010,09,02,11,39,16.80
2010,09,02,11,40,16.90
2010,09,02,11,41,17.00
2010,09,02,11,42,17.00
2010,09,02,11,43,17.10
2010,09,02,11,44,17.10
2010,09,02,11,45,17.20
2010,09,02,11,46,17.20
2010,09,02,11,47,17.20
2010,09,02,11,48,17.20
2010,09,02,11,49,17.10
2010,09,02,11,50,17.10
2010,09,02,11,51,17.10
2010,09,02,11,52,17.00
2010,09,02,11,53,17.00
2010,09,02,11,54,17.00
2010,09,02,11,55,17.10
2010,09,02,11,56,17.10
2010,09,02,11,57,17.20
2010,09,02,11,58,17.20
2010,09,02,11,59,17.20
2010,09,02,12,00,17.10
2010,09,02,12,01,17.10
2010,09,02,12,02,17.10
2010,09,02,12,03,17.10
2010,09,02,12,04,17.10
2010,09,02,12,05,17.10
2010,09,02,12,06,17.10
2010,09,02,12,07,17.20
2010,09,02,12,08,17.20
2010,09,02,12,09,17.20
2010,09,02,12,10,17.20
2010,09,02,12,11,17.30
2010,09,02,12,12,17.30
2010,09,02,12,13,17.40
2010,09,02,12,14,17.50
2010,09,02,12,15,17.60
2010,09,02,12,16,17.60
2010,09,02,12,17,17.60
2010,09,02,12,18,17.50
2010,09,02,12,19,17.50
2010,09,02,12,20,17.50
2010,09,02,12,21,17.40
2010,09,02,12,22,17.50
2010,09,02,12,23,17.50
2010,09,02,12,24,17.60
2010,09,02,12,25,17.60
2010,09,02,12,26,17.60
2010,09,02,12,27,17.70
2010,09,02,12,28,17.70
2010,09,02,12,29,17.70
2010,09,02,12,30,17.70
2010,09,02,12,31,17.70
2010,09,02,12,32,17.70
2010,09,02,12,33,17.70
2010,09,02,12,34,17.70
2010,09,02,12,35,17.70
2010,09,02,12,36,17.60
2010,09,02,12,37,17.60
2010,09,02,12,38,17.60
2010,09,02,12,39,17.60
2010,09,02,12,40,17.50
2010,09,02,12,41,17.40
2010,09,02,12,42,17.30
2010,09,02,12,43,17.30
2010,09,02,12,44,17.20
2010,09,02,12,45,17.20
2010,09,02,12,46,17.10
2010,09,02,12,47,17.10
2010,09,02,12,48,17.10
2010,09,02,12,49,17.10
2010,09,02,12,50,17.10
2010,09,02,12,51,17.10
2010,09,02,12,52,17.10
2010,09,02,12,53,17.10
2010,09,02,12,54,17.10
2010,09,02,12,55,17.10
2010,09,02,12,56,17.10
2010,09,02,12,57,17.20
2010,09,02,12,58,17.20
2010,09,02,12,59,17.20
2010,09,02,13,00,17.20
2010,09,02,13,01,17.20
2010,09,02,13,02,17.10
2010,09,02,13,03,17.10
2010,09,02,13,04,17.10
2010,09,02,13,05,17.10
2010,09,02,13,06,17.10
2010,09,02,13,07,17.10
2010,09,02,13,08,17.10
2010,09,02,13,09,17.20
2010,09,02,13,10,17.20
2010,09,02,13,11,17.30
2010,09,02,13,12,17.30
2010,09,02,13,13,17.30
2010,09,02,13,14,17.30
2010,09,02,13,15,17.30
2010,09,02,13,16,17.20
2010,09,02,13,17,17.20
2010,09,02,13,18,17.20
2010,09,02,13,19,17.20
2010,09,02,13,20,17.20
2010,09,02,13,21,17.20
2010,09,02,13,22,17.20
2010,09,02,13,23,17.30
2010,09,02,13,24,17.30
2010,09,02,13,25,17.30
2010,09,02,13,26,17.30
2010,09,02,13,27,17.30
2010,09,02,13,28,17.30
2010,09,02,13,29,17.30
2010,09,02,13,30,17.30
2010,09,02,13,31,17.30
2010,09,02,13,32,17.20
2010,09,02,13,33,17.20
2010,09,02,13,34,17.20
2010,09,02,13,35,17.20
2010,09,02,13,36,17.20
2010,09,02,13,37,17.30
2010,09,02,13,38,17.30
2010,09,02,13,39,17.40
2010,09,02,13,40,17.50
2010,09,02,13,41,17.60
2010,09,02,13,42,17.70
2010,09,02,13,43,17.80
2010,09,02,13,44,18.00
2010,09,02,13,45,18.10
2010,09,02,13,46,18.30
2010,09,02,13,47,18.50
2010,09,02,13,48,18.60
2010,09,02,13,49,18.80
2010,09,02,13,50,18.90
2010,09,02,13,51,19.00
2010,09,02,13,52,19.10
2010,09,02,13,53,19.10
2010,09,02,13,54,19.10
2010,09,02,13,55,19.10
2010,09,02,13,56,19.10
2010,09,02,13,57,19.20
2010,09,02,13,58,19.20
2010,09,02,13,59,19.20
2010,09,02,14,00,19.30
2010,09,02,14,01,19.30
2010,09,02,14,02,19.30
2010,09,02,14,03,19.30
2010,09,02,14,04,19.30
2010,09,02,14,05,19.40
2010,09,02,14,06,19.40
2010,09,02,14,07,19.50
2010,09,02,14,08,19.50
2010,09,02,14,09,19.60
2010,09,02,14,10,19.60
2010,09,02,14,11,19.70
2010,09,02,14,12,19.80
2010,09,02,14,13,19.80
2010,09,02,14,14,19.80
2010,09,02,14,15,19.90
2010,09,02,14,16,19.90
2010,09,02,14,17,19.90
2010,09,02,14,18,19.90
2010,09,02,14,19,20.00
2010,09,02,14,20,20.00
2010,09,02,14,21,20.00
2010,09,02,14,22,20.10
2010,09,02,14,23,20.10
2010,09,02,14,24,20.10
2010,09,02,14,25,20.20
2010,09,02,14,26,20.20
2010,09,02,14,27,20.20
2010,09,02,14,28,20.20
2010,09,02,14,29,20.20
2010,09,02,14,30,20.10
2010,09,02,14,31,20.00
2010,09,02,14,32,20.00
2010,09,02,14,33,20.00
2010,09,02,14,34,20.00
2010,09,02,14,35,20.10
2010,09,02,14,36,20.10
2010,09,02,14,37,20.10
2010,09,02,14,38,20.20
2010,09,02,14,39,20.20
2010,09,02,14,40,20.30
2010,09,02,14,41,20.30
2010,09,02,14,42,20.30
2010,09,02,14,43,20.30
2010,09,02,14,44,20.30
2010,09,02,14,45,20.30
2010,09,02,14,46,20.30
2010,09,02,14,47,20.30
2010,09,02,14,48,20.30
2010,09,02,14,49,20.30
2010,09,02,14,50,20.20
2010,09,02,14,51,20.20
2010,09,02,14,52,20.10
2010,09,02,14,53,20.10
2010,09,02,14,54,20.10
2010,09,02,14,55,20.10
2010,09,02,14,56,20.10
2010,09,02,14,57,20.20
2010,09,02,14,58,20.20
2010,09,02,14,59,20.20
2010,09,02,15,00,20.20
2010,09,02,15,01,20.20
2010,09,02,15,02,20.20
2010,09,02,15,03,20.20
2010,09,02,15,04,20.20
2010,09,02,15,05,20.20
2010,09,02,15,06,20.20
2010,09,02,15,07,20.20
2010,09,02,15,08,20.20
2010,09,02,15,09,20.20
2010,09,02,15,10,20.20
2010,09,02,15,11,20.20
2010,09,02,15,12,20.20
2010,09,02,15,13,20.20
2010,09,02,15,14,20.20
2010,09,02,15,15,20.20
2010,09,02,15,16,20.30
2010,09,02,15,17,20.30
2010,09,02,15,18,20.30
2010,09,02,15,19,20.40
2010,09,02,15,20,20.40
2010,09,02,15,21,20.40
2010,09,02,15,22,20.40
2010,09,02,15,23,20.40
2010,09,02,15,24,20.40
2010,09,02,15,25,20.50
2010,09,02,15,26,20.50
2010,09,02,15,27,20.50
2010,09,02,15,28,20.60
2010,09,02,15,29,20.60
2010,09,02,15,30,20.60
2010,09,02,15,31,20.60
2010,09,02,15,32,20.60
2010,09,02,15,33,20.70
2010,09,02,15,34,20.70
2010,09,02,15,35,20.80
2010,09,02,15,36,20.90
2010,09,02,15,37,20.90
2010,09,02,15,38,20.90
2010,09,02,15,39,20.90
2010,09,02,15,40,21.00
2010,09,02,15,41,21.00
2010,09,02,15,42,21.00
2010,09,02,15,43,21.00
2010,09,02,15,44,21.00
2010,09,02,15,45,21.00
2010,09,02,15,46,21.00
2010,09,02,15,47,20.90
2010,09,02,15,48,20.90
2010,09,02,15,49,20.80
2010,09,02,15,50,20.80
2010,09,02,15,51,20.70
2010,09,02,15,52,20.70
2010,09,02,15,53,20.70
2010,09,02,15,54,20.70
2010,09,02,15,55,20.70
2010,09,02,15,56,20.70
2010,09,02,15,57,20.70
2010,09,02,15,58,20.70
2010,09,02,15,59,20.70
2010,09,02,16,00,20.70
2010,09,02,16,01,20.80
2010,09,02,16,02,20.80
2010,09,02,16,03,20.80
2010,09,02,16,04,20.80
2010,09,02,16,05,20.80
2010,09,02,16,06,20.80
2010,09,02,16,07,20.80
2010,09,02,16,08,20.80
2010,09,02,16,09,20.80
2010,09,02,16,10,20.80
2010,09,02,16,11,20.90
2010,09,02,16,12,20.90
2010,09,02,16,13,20.90
2010,09,02,16,14,20.90
2010,09,02,16,15,20.90
2010,09,02,16,16,20.90
2010,09,02,16,17,20.90
2010,09,02,16,18,20.90
2010,09,02,16,19,20.90
2010,09,02,16,20,20.80
2010,09,02,16,21,20.80
2010,09,02,16,22,20.80
2010,09,02,16,23,20.80
2010,09,02,16,24,20.70
2010,09,02,16,25,20.70
2010,09,02,16,26,20.70
2010,09,02,16,27,20.70
2010,09,02,16,28,20.70
2010,09,02,16,29,20.60
2010,09,02,16,30,20.60
2010,09,02,16,31,20.50
2010,09,02,16,32,20.50
2010,09,02,16,33,20.50
2010,09,02,16,34,20.50
2010,09,02,16,35,20.50
2010,09,02,16,36,20.40
2010,09,02,16,37,20.40
2010,09,02,16,38,20.40
2010,09,02,16,39,20.40
2010,09,02,16,40,20.40
2010,09,02,16,41,20.40
2010,09,02,16,42,20.40
2010,09,02,16,43,20.40
2010,09,02,16,44,20.50
2010,09,02,16,45,20.50
2010,09,02,16,46,20.50
2010,09,02,16,47,20.50
2010,09,02,16,48,20.60
2010,09,02,16,49,20.60
2010,09,02,16,50,20.70
2010,09,02,16,51,20.70
2010,09,02,16,52,20.70
2010,09,02,16,53,20.70
2010,09,02,16,54,20.60
2010,09,02,16,55,20.60
2010,09,02,16,56,20.60
2010,09,02,16,57,20.60
2010,09,02,16,58,20.60
2010,09,02,16,59,20.50
2010,09,02,17,00,20.50
2010,09,02,17,01,20.50
2010,09,02,17,02,20.50
2010,09,02,17,03,20.50
2010,09,02,17,04,20.40
2010,09,02,17,05,20.40
2010,09,02,17,06,20.40
2010,09,02,17,07,20.40
2010,09,02,17,08,20.30
2010,09,02,17,09,20.30
2010,09,02,17,10,20.20
2010,09,02,17,11,20.20
2010,09,02,17,12,20.10
2010,09,02,17,13,20.10
2010,09,02,17,14,20.10
2010,09,02,17,15,20.00
2010,09,02,17,16,20.00
2010,09,02,17,17,20.00
2010,09,02,17,18,20.00
2010,09,02,17,19,20.00